Miscellaneous Local Product
Issued by NWS Hastings, NE

Home | Current Version | Previous Version | Graphics & Text | Print | Product List | Glossary On
Versions: 1 2 3 4 5 6 7 8 9 10 11 12 13 14 15 16 17 18 19 20 21 22 23 24 25 26 27 28 29 30 31 32 33 34 35 36 37 38 39 40 41 42 43 44 45 46 47 48 49 50
000
AXUS43 KGID 230802
MISGRI

GID CWA HOURLY WEATHER ROUNDUP
NATIONAL WEATHER SERVICE HASTINGS NE
300 AM CDT SAT JUL 23 2016

NOTE: "FAIR" INDICATES FEW OR NO CLOUDS BELOW 12,000 FEET WITH NO
SIGNIFICANT WEATHER AND/OR OBSTRUCTIONS TO VISIBILITY.

...SOUTH CENTRAL NEBRASKA...

CITY           SKY/WX    TMP DP  RH WIND       PRES   REMARKS
GRAND ISLAND   LGT RAIN  78  69  73 W8G31     29.96R
HASTINGS       CLOUDY    78  68  71 SW6       29.95R
KEARNEY        CLOUDY    73  66  78 NW21G30   29.99S
ORD            TSTM      71  65  81 SW14G28   29.97F
YORK           MOCLDY    77  68  73 S9        29.89S
AURORA         CLOUDY    75  70  83 S7        29.90R
LEXINGTON      RAIN      70  67  89 N9        30.02F
HOLDREGE       LGT RAIN  72  66  82 N20G33    29.99S
HEBRON         CLOUDY    80  70  70 S12G18    29.89F

...NEBRASKA PANHANDLE...

CITY           SKY/WX    TMP DP  RH WIND       PRES   REMARKS
CHADRON        CLOUDY    71  61  70 NE5       29.95R
ALLIANCE       CLOUDY    67  62  84 S9        29.97F
SCOTTSBLUFF    PTCLDY    65  60  84 E6        29.99F
SIDNEY         CLOUDY    67  63  87 S7        30.03F

...WESTERN AND NORTH CENTRAL NEBRASKA...

CITY           SKY/WX    TMP DP  RH WIND       PRES   REMARKS
VALENTINE      CLOUDY    76  67  73 SW7       29.92R
AINSWORTH      CLOUDY    73  64  75 W3        29.94R
ONEILL         TSTM      73  68  82 SW9G21    29.92F
BROKEN BOW     RAIN      70  67  90 SE13      30.04R
IMPERIAL       CLOUDY    72  63  73 E14       29.94F THUNDER
NORTH PLATTE   LGT RAIN  70  65  84 SE20G31   29.88F
MCCOOK         CLOUDY    72  66  81 NE14      29.97F

...EASTERN NEBRASKA...

CITY           SKY/WX    TMP DP  RH WIND       PRES   REMARKS
NORFOLK        CLOUDY    78  75  90 SE5       29.87F
SO SIOUX CITY  PTCLDY    81  78  91 SE9       29.87F
TEKAMAH        CLOUDY    80  77  90 SE7       29.89R
COLUMBUS       CLOUDY    77  64  65 SE8       29.89F
ALBION         LGT RAIN  77  71  81 W18G28    29.96R
OMAHA EPPLEY   CLOUDY    84  74  71 S9        29.90R HX  91
OFFUTT AFB     CLOUDY    81  75  81 SE9       29.90S
MILLARD        CLOUDY    81  75  82 SE3       29.90S
LINCOLN        MOCLDY    82  73  74 S10       29.89S
NEBRASKA CITY  CLOUDY    79  74  84 S9        29.92S
BEATRICE       MOCLDY    82  71  69 S8        29.90S
FALLS CITY     MOCLDY    82  73  74 S8        29.91F

...NORTHERN KANSAS...

CITY           SKY/WX    TMP DP  RH WIND       PRES   REMARKS
GOODLAND       CLOUDY    71  65  81 E8        29.99S
HILL CITY      CLOUDY    80  68  66 N16G25    29.98R
NORTON         SUNNY     73  61  64 N15G21    29.98R
SMITH CENTER   CLEAR     75  66  73 W7        29.94R
BELOIT         CLEAR     81  70  69 SE7       29.88S
HAYS           CLOUDY    82  57  42 S12       29.92S
RUSSELL        CLOUDY    84  61  45 S10       29.91R
CONCORDIA      CLOUDY    81  68  64 S14       29.90S
SALINA         PTCLDY    84  66  54 S12       29.91R
TOPEKA         CLOUDY    82  70  66 SE6       29.93F



USA.gov is the U.S. government's official web portal to all federal, state and local government web resources and services.